Regional Weather Roundup
Issued by NWS Northern Indiana

Home | Current Version | Previous Version | Graphics & Text | Print | Product List | Glossary On
Versions: 1 2 3 4 5 6 7 8 9 10 11 12 13 14 15 16 17 18 19 20 21 22 23 24 25 26 27 28 29 30 31 32 33 34 35 36 37 38 39 40 41 42 43 44 45 46 47 48 49 50
000
ASUS43 KIWX 291300
RWRIWX

KIWX WEATHER ROUNDUP
NATIONAL WEATHER SERVICE NORTHERN INDIANA
900 AM EDT MON AUG 29 2016

NOTE: "FAIR" INDICATES FEW OR NO CLOUDS BELOW 12,000 FEET WITH NO
SIGNIFICANT WEATHER AND/OR OBSTRUCTIONS TO VISIBILITY.

* THESE STATIONS ARE NOT UNDER NWS QUALITY CONTROL. THEY ALSO MAY NOT
  REPORT WEATHER SUCH AS PRECIPITATION OR FOG.

INZ001>027-291400-
NORTHERN INDIANA

CITY           SKY/WX    TMP DP  RH WIND       PRES   REMARKS
GARY*          MOSUNNY   75  73  94 NE8       30.24
KNOX*          MOSUNNY   68  61  77 E3        30.24R
SOUTH BEND     SUNNY     72  69  90 E7        30.26R
ELKHART*       SUNNY    N/A N/A N/A E7        30.25R
GOSHEN         SUNNY     73  68  84 E6        30.26R
MONTICELLO*    SUNNY     72  65  81 E3        30.23R
ANGOLA*        SUNNY     72  63  73 E8        30.27R
FORT WAYNE     PTSUNNY   71  68  90 NE9       30.26R

$$
INZ028>050-291400-
CENTRAL INDIANA

CITY           SKY/WX    TMP DP  RH WIND       PRES   REMARKS
LAFAYETTE      MOSUNNY   72  70  93 E5        30.24R
KOKOMO*        CLOUDY    70  68  94 CALM      30.24R
MUNCIE*        MOSUNNY   73  69  87 E5        30.25R
INDIANAPOLIS   MOSUNNY   74  68  81 E3        30.24R

$$
MIZ043>046-050>051-056>058-064>065-071>073-077>080-291400-
SOUTHWEST LOWER MICHIGAN

CITY           SKY/WX    TMP DP  RH WIND       PRES   REMARKS
BATTLE CREEK   SUNNY     70  67  90 E8        30.28R
BENTON HARBOR  SUNNY     73  68  84 SE6       30.25R
COLDWATER*     PTSUNNY   71  70  97 E5        30.28R
HILLSDALE*     SUNNY     71  67  86 E7        30.28S
HOLLAND        SUNNY     70  67  90 E5        30.26S
GRAND RAPIDS   MOSUNNY   69  65  86 E6        30.28R
KALAMAZOO      SUNNY     72  67  84 VRB3      30.27R
STURGIS*       SUNNY     71  68  90 E6        30.26R

$$
OHZ001>008-015>018-024>025-291400-
NORTHWEST OHIO

CITY           SKY/WX    TMP DP  RH WIND       PRES   REMARKS
DEFIANCE       MOSUNNY   73  70  90 E6        30.26S
FINDLAY        CLOUDY    74  71  91 NE9       30.25S FOG
TOLEDO EXPRESS SUNNY     73  71  93 NE7       30.26R
TOLEDO METCALF MOSUNNY   76  71  85 NE7       30.27R
LIMA           CLOUDY    71  71 100 NE7       30.26R FOG

$$
AND FOR LAKE MICHIGAN COASTAL AND OPEN LAKE BUOY OBSERVATIONS

STATION/POSITION TEMP    WIND        PRES    VSBY  WAVE
                 AIR SEA DIR/SP/G                  HT/PER
                 (F)     (DEG/KT/KT) (MB)    (MI)  (FT/S)
CALUMET HARBOR    73      10/  6/ 10 1023.0R
MICHIGAN CITY     70      60/  7/  8   N/A
BURNS HARBOR      71      80/  7/ 10 1024.0R
SAINT JOSEPH      69      CALM  /  3 1024.7R
SOUTH LAKE BUOY   73 75   70/  8/  8 1023.4          0
4 MI NW BRIDGMAN  71 75   60/  8/ 10 1023.6R         1
MICHIGAN CITY     74 76   70/ 10/ 12   N/A           1/ 3

$$
&&



USA.gov is the U.S. government's official web portal to all federal, state and local government web resources and services.